Regional Weather Roundup
Issued by NWS

Home | Current Version | Previous Version | Graphics & Text | Print | Product List | Glossary Off
Versions: 1 2 3 4 5 6 7 8 9 10 11 12 13 14 15 16 17 18 19 20 21 22 23 24 25 26 27 28 29 30 31 32 33 34 35 36 37 38 39 40 41 42 43 44 45 46 47 48 49 50

000
ASUS43 KLSX 220357
RWRMO

WEATHER SUMMARY FOR MISSOURI
NATIONAL WEATHER SERVICE SPRINGFIELD MO
1000 PM CST WED FEB 21 2018

NOTE: "FAIR" INDICATES FEW OR NO CLOUDS BELOW 12,000 FEET WITH NO
       SIGNIFICANT WEATHER AND/OR OBSTRUCTIONS TO VISIBILITY.
       CURRENT SKY AND/OR WEATHER CONDITIONS ARE NOT AVAILABLE FOR
       CHILLICOTHE AND FARMINGTON.

MOZ001>031-035>038-043-044-053-054-220500-
...NORTHERN AND WESTERN MISSOURI...

CITY           SKY/WX    TMP DP  RH WIND       PRES   REMARKS
KANSAS CTY INT FLURRIES  26  22  84 NE13      30.45F WCI  15
ST JOSEPH      CLOUDY    27  23  85 NE12      30.48F WCI  17
CHILLICOTHE      N/A     27  20  75 NE9G17    30.51F WCI  18

$$
MOZ066>068-077>081-088>096-101>105-220500-
...SOUTHWEST MISSOURI...

CITY           SKY/WX    TMP DP  RH WIND       PRES   REMARKS
SPRINGFIELD    CLOUDY    29  27  92 NE13      30.32F WCI  19
JOPLIN         CLOUDY    29  28  96 NE13      30.38S WCI  19

$$
MOZ032>034-039>042-045>050-055>058-069>072-220500-
...CENTRAL MISSOURI...

CITY           SKY/WX    TMP DP  RH WIND       PRES   REMARKS
COLUMBIA       NOT AVBL
JEFFERSON CITY CLOUDY    30  26  85 VRB5      30.46F WCI  25
ROLLA          CLOUDY    27  27 100 NE9       30.39F FOG     WCI  18
SEDALIA        CLOUDY    29  27  92 NE10      30.47F WCI  20
WARRENSBURG    CLOUDY    28  27  93 NE6       30.45F WCI  22

$$
MOZ051-052-059>065-220500-
...EAST CENTRAL MISSOURI...

CITY           SKY/WX    TMP DP  RH WIND       PRES   REMARKS
ST LOUIS INTL  FRZ RAIN  32  31  96 NE7       30.47F WCI  26

$$
MOZ072>076-082>087-097>100-106>115-220500-
...SOUTH CENTRAL AND SOUTHEAST MISSOURI...

CITY           SKY/WX    TMP DP  RH WIND       PRES   REMARKS
CAPE GIRARDEAU RAIN      36  33  89 N12G25    30.40F WCI  28
POPLAR BLUFF   HVY RAIN  35  33  92 N14       30.41R FOG     WCI  26
WEST PLAINS    CLOUDY    32  31  96 NE9       30.35F WCI  24

$$



USA.gov is the U.S. government's official web portal to all federal, state and local government web resources and services.